Location: Ulm
(48.3980°N, 9.9777°E)
Time: 05:01:47
(UTC+01:00)

ISS - Visible Passes

Search period start: 25 November 2017 00:00
Search period end: 05 December 2017 00:00
Orbit: 401 x 407 km, 51.6° (Epoch: 25 November)

Date Brightness Start Highest point End Pass type
(mag) Time Alt. Az. Time Alt. Az. Time Alt. Az.
27 Nov -1.0 19:07:12 10° SSW 19:07:46 14° SSW 19:07:46 14° SSW visible
28 Nov -2.1 18:15:26 10° SSW 18:17:44 21° SSE 18:17:44 21° SSE visible
29 Nov -1.5 17:24:15 10° SSE 17:25:48 13° SE 17:27:23 10° ESE visible
29 Nov -2.0 18:58:30 10° SW 19:00:16 29° SW 19:00:16 29° SW visible
30 Nov -3.1 18:06:20 10° SW 18:09:25 40° SSE 18:10:04 35° ESE visible
30 Nov -0.2 19:42:36 10° W 19:42:43 11° W 19:42:43 11° W visible
01 Dec -2.3 17:14:23 10° SSW 17:17:08 25° SE 17:19:49 10° E visible
01 Dec -2.7 18:50:05 10° WSW 18:52:28 44° W 18:52:28 44° W visible
02 Dec -3.9 17:57:38 10° WSW 18:00:55 75° SSE 18:02:09 35° ENE visible
02 Dec -0.5 19:34:21 10° W 19:34:47 13° W 19:34:47 13° W visible
03 Dec -3.2 17:05:21 10° SW 17:08:31 47° SSE 17:11:42 10° ENE visible
03 Dec -3.0 18:41:45 10° W 18:44:26 46° NW 18:44:26 46° NW visible
04 Dec -3.7 17:49:11 10° WSW 17:52:28 69° NNW 17:54:02 28° ENE visible
04 Dec -0.7 19:26:01 10° WNW 19:26:40 15° WNW 19:26:40 15° WNW visible
